Theta_e
313 312 312 314 317 318 321 322 319 322 322 321 322 320 319 321 324 323 322 323 321 322 329 342 349 346 349 357 361 360 355 359 359 348 343 350 348 347 347 345 346 346 347 347 345 348 346 341 339 338 337 332 327 330 332 332 332 330 330 328 327 325 325 325 323 325 326 328 332 333 332 333 336 338 336 335 337 337 338 338 338 338 337 336 335 335 335 337 337 337 337 338 338 337 337 337 338
311 314 316 318 320 321 325 324 323 324 322 319 318 321 321 324 323 321 324 322 322 331 341 348 352 353 351 354 356 355 353 352 352 350 350 348 348 348 346 345 344 344 347 345 345 347 346 343 339 338 336 330 327 330 334 334 332 332 330 327 327 326 326 328 329 328 328 331 334 334 335 334 335 337 336 337 338 337 337 338 338 337 337 337 336 335 335 337 338 337 337 337 337 337 337 337 338
311 316 321 322 320 323 327 326 328 324 319 317 316 322 320 322 324 322 324 320 325 336 346 351 353 352 350 361 361 354 351 348 349 349 350 349 349 348 346 345 343 345 345 344 346 346 346 343 339 338 335 330 327 332 336 335 334 333 330 326 327 329 331 334 335 333 332 336 336 331 333 335 337 337 337 338 337 337 337 337 337 338 337 337 337 335 336 337 336 336 337 337 336 336 336 336 337
310 317 322 324 323 325 329 329 333 327 320 319 317 322 321 323 325 323 321 318 322 326 341 357 359 350 355 371 360 358 357 348 349 349 349 348 348 348 347 346 345 346 345 346 346 344 344 342 340 337 335 330 328 335 337 337 336 334 330 326 327 332 336 337 337 337 337 337 334 329 333 338 339 338 337 338 337 337 337 337 338 338 338 338 335 334 335 336 336 336 336 336 335 334 334 334 335
309 316 320 325 325 326 328 327 330 326 322 322 320 323 325 322 322 321 317 317 314 322 346 360 360 350 354 360 352 363 361 350 349 347 349 348 348 348 348 346 345 347 346 347 345 343 343 341 338 337 335 328 332 338 338 337 336 335 333 329 330 334 338 338 338 339 339 337 333 330 334 338 339 338 337 336 337 337 337 338 338 337 336 335 332 329 331 333 336 337 336 335 333 332 333 334 332
310 317 320 323 322 322 326 324 325 325 323 323 322 326 327 321 320 319 317 316 319 334 350 358 358 354 356 353 352 359 353 351 350 346 348 347 348 348 348 347 346 347 347 347 345 343 343 341 338 337 334 329 333 337 338 338 334 336 337 335 335 336 337 337 338 338 338 337 334 332 335 337 338 339 336 335 338 336 336 337 335 334 333 333 330 325 324 327 332 334 333 332 331 332 333 331 329
314 320 323 323 322 322 328 329 327 327 324 322 321 324 323 321 319 317 319 316 326 346 353 355 353 358 359 352 355 354 347 350 348 346 348 347 348 347 347 347 346 347 346 346 343 342 343 341 338 338 334 331 334 334 337 338 335 337 338 338 338 338 337 336 337 338 337 337 335 332 334 337 337 338 334 334 337 335 336 336 334 334 334 333 328 323 320 324 329 330 331 331 331 331 330 329 328
318 321 323 326 325 322 326 327 327 327 325 322 321 322 321 321 319 316 321 315 323 350 354 351 350 367 363 353 363 354 345 348 347 347 348 347 348 347 347 346 346 347 347 346 343 343 344 340 338 338 334 333 334 333 337 340 338 339 339 339 338 337 338 337 337 338 337 336 336 333 333 337 337 336 333 334 337 336 337 337 336 335 334 332 327 322 318 322 328 329 330 330 330 329 328 328 329
318 317 320 323 323 321 322 322 321 323 323 321 319 321 322 322 320 318 321 316 327 350 353 350 351 370 366 357 364 351 345 347 346 347 346 347 347 346 347 346 346 346 346 345 343 344 344 340 339 338 336 334 333 333 337 341 340 339 340 339 336 335 336 338 337 338 336 335 335 332 333 338 339 336 335 335 336 337 338 337 335 334 333 331 327 321 316 320 326 328 328 328 328 327 327 328 330
319 318 320 322 323 322 322 321 319 320 319 319 318 318 320 318 319 318 319 317 331 352 355 354 355 364 363 359 357 349 347 345 345 347 346 347 346 347 346 346 345 344 345 345 345 345 344 342 340 339 337 335 333 333 337 341 341 339 339 337 334 334 335 337 336 336 335 335 334 332 334 337 338 336 336 336 336 337 337 336 335 334 332 330 328 320 314 318 324 326 326 326 326 327 329 330 330
323 319 320 324 324 323 323 322 322 322 319 318 317 316 318 315 316 316 319 328 343 357 355 357 360 357 357 356 354 348 345 344 345 345 346 347 346 346 345 346 345 344 345 345 346 345 344 343 342 341 337 336 335 334 337 339 339 337 336 334 333 334 334 335 335 336 335 335 334 332 333 336 337 336 336 337 337 337 337 336 335 334 331 330 328 319 313 317 322 324 324 325 327 329 330 330 332
326 320 322 327 326 324 324 324 322 323 319 317 317 317 317 315 317 317 326 343 353 355 351 356 358 354 356 357 353 347 344 344 344 344 345 345 345 346 345 346 346 345 346 345 346 345 344 344 344 342 338 337 335 335 336 337 337 335 333 332 333 333 333 334 335 336 337 336 334 333 333 334 336 336 337 337 337 337 337 336 334 333 331 330 328 320 314 316 320 322 324 327 329 330 330 332 333
326 323 324 325 324 324 321 320 320 321 319 318 319 318 318 317 320 321 334 347 350 351 348 352 353 351 356 355 352 348 346 344 343 344 344 344 345 346 345 346 347 347 346 346 346 345 344 344 344 342 340 340 336 335 337 336 336 334 333 332 331 332 332 334 334 336 339 338 335 334 333 334 335 336 337 337 337 337 337 335 334 333 331 330 328 321 316 317 321 323 326 329 330 330 332 333 334
324 323 325 324 320 320 319 318 319 319 319 319 318 319 319 320 320 326 351 361 353 352 350 349 349 354 359 353 353 349 346 345 342 343 343 345 345 345 346 346 347 347 347 347 346 345 344 344 343 342 341 342 339 338 338 336 335 334 333 331 331 332 331 331 332 335 339 338 337 335 333 333 334 335 337 338 338 337 338 335 334 333 331 330 329 323 317 319 322 325 328 329 330 331 333 334 334
320 322 325 323 320 319 318 319 318 316 316 317 317 318 319 320 319 327 356 370 358 350 348 349 346 355 362 355 355 349 346 346 343 343 343 345 346 345 345 345 347 346 347 347 346 346 344 344 343 342 342 342 340 340 339 337 336 335 333 331 331 331 330 331 333 335 338 338 337 336 334 334 334 335 337 338 338 338 337 335 334 333 331 330 329 324 319 321 324 327 329 329 330 333 333 334 333
319 319 320 319 319 318 317 318 316 315 316 319 318 317 319 316 317 326 342 355 355 347 348 351 345 351 358 354 354 348 346 346 343 343 344 345 346 346 345 345 347 347 347 346 346 346 344 344 343 343 343 342 341 340 338 337 337 335 333 332 331 331 331 333 335 337 338 337 337 336 336 335 334 335 337 338 338 338 336 335 334 333 332 330 330 327 321 321 325 329 329 328 331 332 334 334 334
315 317 318 317 317 316 317 318 314 314 317 320 319 317 318 315 317 332 341 349 353 351 353 352 348 352 354 352 350 346 346 345 342 343 344 345 346 346 346 346 347 347 346 346 345 346 345 345 344 344 344 343 342 340 337 336 336 335 334 331 330 332 334 335 337 339 340 338 337 336 336 336 335 335 336 338 338 338 336 335 334 333 332 331 330 329 325 322 323 328 329 329 332 332 334 336 335
314 317 318 317 316 316 318 320 316 313 315 317 317 316 317 316 315 328 344 351 353 359 360 354 354 352 350 349 347 346 346 344 343 344 344 344 345 345 345 346 347 347 346 346 346 345 346 345 344 344 344 343 343 341 337 335 336 336 334 331 331 334 337 337 338 340 339 339 338 337 336 336 336 335 335 338 338 338 336 334 334 333 332 331 330 330 329 326 323 325 327 329 331 332 333 335 335
316 319 317 316 316 316 317 317 315 313 315 315 315 316 315 316 312 323 351 357 353 362 363 358 359 354 349 348 346 346 345 344 343 342 343 343 343 344 344 345 345 346 346 346 346 345 345 345 344 344 343 344 342 340 338 337 337 336 334 333 334 336 338 339 338 339 339 338 337 336 335 335 335 334 335 337 337 337 336 334 334 334 332 332 331 330 330 329 326 323 324 329 331 331 333 334 335
316 317 316 317 315 315 316 315 315 314 315 314 315 316 315 317 311 324 358 360 354 365 368 365 365 356 350 348 345 345 345 344 343 342 343 342 342 342 342 342 344 345 345 345 345 345 344 344 344 344 343 343 342 340 338 338 338 336 334 336 337 337 339 339 339 339 338 337 336 334 333 333 333 332 334 336 336 336 336 335 334 334 332 331 331 331 331 331 329 325 324 330 331 330 332 333 334
314 316 316 318 314 315 316 315 316 315 315 314 316 315 316 316 312 332 357 356 354 358 362 367 366 355 349 349 345 345 345 344 344 343 342 342 341 339 337 338 342 343 343 344 344 345 343 343 343 343 343 343 341 339 338 338 338 336 335 338 339 339 339 339 339 339 338 337 335 333 332 332 332 332 333 335 335 335 336 335 334 334 332 332 331 331 331 331 331 328 328 330 330 331 334 334 333
313 315 315 316 314 314 315 315 316 317 316 315 316 315 316 314 315 338 349 346 352 352 355 361 358 351 348 348 346 345 346 345 345 344 343 343 339 336 335 337 340 341 342 343 344 344 342 342 342 341 341 341 339 338 338 338 339 337 336 339 340 341 340 339 339 339 337 336 335 333 332 333 332 333 334 333 333 333 335 335 334 333 331 331 331 331 331 331 331 330 330 330 331 333 336 335 334
315 316 314 314 314 314 314 314 316 318 317 315 318 315 315 316 315 327 329 327 333 338 349 355 351 348 347 347 346 346 346 346 345 342 341 341 336 335 335 337 339 339 340 342 343 342 342 342 341 341 340 340 339 339 339 340 339 337 337 340 340 341 341 340 339 338 337 336 335 334 333 333 332 334 334 333 333 333 334 334 334 333 330 329 330 331 331 330 331 331 331 331 332 334 334 333 334
315 315 315 314 313 314 313 314 316 317 316 316 318 314 315 317 314 317 317 321 332 343 351 354 350 347 347 347 347 346 346 343 340 337 337 338 336 336 336 336 338 339 340 340 341 341 342 342 341 341 341 341 341 340 340 339 338 337 338 340 340 341 341 340 339 338 337 336 335 334 334 333 332 334 335 333 333 333 332 332 333 332 330 328 329 331 330 330 330 330 331 332 333 334 333 332 333
314 314 314 314 313 314 313 313 314 315 316 315 315 315 317 317 315 316 313 326 345 355 353 352 350 349 348 348 347 347 345 339 336 335 336 336 336 337 337 337 338 339 337 337 338 339 341 342 342 341 341 341 341 340 340 338 337 337 339 339 339 341 340 340 339 338 337 336 336 335 335 334 333 334 335 334 333 332 332 332 331 331 330 328 328 331 331 330 330 330 329 331 332 332 331 331 333
315 314 314 313 313 313 312 312 313 314 314 315 314 316 318 316 313 314 319 335 348 354 351 351 350 350 349 347 347 347 343 338 337 336 335 336 337 337 337 338 339 338 337 337 337 336 339 341 341 341 340 341 341 340 339 337 336 337 339 338 339 340 340 340 339 338 337 336 336 335 336 336 334 335 335 335 334 333 334 333 330 329 329 326 326 328 329 328 329 328 328 329 330 331 331 331 333
315 313 314 313 313 312 312 313 313 314 314 315 315 316 318 315 313 313 327 343 350 354 352 351 351 349 348 346 347 345 340 338 336 335 335 335 336 336 337 338 339 338 336 337 335 331 335 340 340 339 339 340 340 339 339 338 338 339 338 338 340 340 339 338 337 336 336 335 334 335 336 337 336 336 335 336 335 334 334 333 330 329 330 329 328 328 328 328 328 329 329 330 331 331 331 331 332
313 312 313 313 312 311 311 312 314 314 314 316 315 316 317 313 314 314 329 345 351 356 354 350 350 349 348 346 346 342 338 337 335 334 335 334 335 336 338 339 339 339 337 336 335 332 333 338 338 337 337 338 339 338 338 337 338 339 338 339 339 339 337 336 336 335 334 333 333 334 335 337 337 336 336 337 336 335 333 332 332 331 331 331 331 331 331 331 331 331 331 331 331 331 331 331 332
312 313 313 314 313 312 314 314 315 315 315 318 315 315 316 315 315 314 331 346 349 353 353 349 350 349 348 347 345 342 338 336 336 334 334 333 335 337 337 339 339 339 338 335 336 335 334 336 337 337 337 338 338 337 335 334 336 336 337 339 339 338 336 335 335 333 333 333 333 334 336 337 337 336 336 337 336 335 333 333 333 332 332 332 332 332 333 332 332 332 332 331 332 331 330 330 331
313 312 311 313 313 314 314 313 315 316 315 317 315 313 315 318 316 313 332 348 350 352 352 349 350 349 348 347 345 342 338 337 337 335 334 334 335 337 338 339 339 339 339 337 337 337 337 337 337 338 337 336 336 335 333 331 332 334 335 338 338 337 336 336 335 334 334 335 336 336 337 337 337 336 336 336 335 335 334 334 334 333 333 333 332 333 334 333 333 333 332 332 332 331 330 330 330
314 311 312 313 311 314 315 315 317 314 313 316 315 312 314 318 314 313 334 347 351 354 352 349 350 349 347 346 344 342 339 337 337 335 335 335 334 336 338 338 338 338 338 338 338 338 339 338 338 339 337 336 334 333 332 330 331 333 336 337 338 337 337 337 337 336 337 337 337 337 337 336 337 336 336 336 335 335 335 335 334 334 334 334 333 334 334 334 333 333 332 332 332 331 331 330 330
317 311 317 320 311 313 317 316 317 313 313 315 314 314 314 316 312 319 338 345 350 353 351 350 350 349 347 347 344 341 339 336 336 336 335 335 334 335 336 335 336 337 337 337 337 337 338 338 339 339 339 338 337 334 332 331 332 334 337 338 338 337 337 337 337 337 337 338 338 337 336 336 336 336 336 336 334 335 336 335 335 335 334 334 334 335 334 333 333 333 332 332 332 331 331 330 330
323 314 318 320 311 312 314 313 315 314 314 313 313 314 315 316 312 321 339 344 348 350 350 349 349 349 348 347 344 341 339 337 337 336 335 335 334 335 336 335 335 337 337 337 337 337 338 338 339 339 339 339 337 335 333 333 335 335 337 338 338 338 337 337 337 337 338 338 337 337 336 336 336 336 337 336 334 335 335 334 334 334 334 334 335 335 334 333 332 332 333 332 332 331 331 330 330
323 319 318 318 313 312 312 313 313 312 314 313 314 314 315 315 312 319 334 343 347 346 347 348 347 347 347 346 344 341 339 339 338 335 334 335 336 337 337 336 336 336 338 339 337 338 339 338 338 338 338 338 335 334 335 334 335 336 337 337 336 336 337 337 336 337 337 337 337 336 336 336 336 336 336 336 335 335 335 333 334 334 334 334 334 335 334 333 332 332 333 332 331 331 330 330 329
318 317 317 317 315 312 312 313 314 312 313 313 313 313 314 314 313 317 329 340 347 344 345 347 344 344 346 346 343 340 340 341 337 334 334 335 336 337 337 337 337 338 340 339 338 338 338 338 338 338 338 338 336 336 335 334 335 336 336 335 334 334 336 337 336 336 337 337 337 336 336 336 336 335 335 335 335 335 335 333 333 333 334 334 334 334 334 333 332 332 332 331 331 331 330 330 330
317 315 314 315 313 313 313 313 314 312 311 314 313 313 314 312 315 319 325 335 343 344 346 347 344 344 345 345 342 341 341 340 334 333 335 335 336 337 337 337 337 339 340 339 337 336 337 337 337 337 338 338 337 336 335 334 335 335 335 335 335 335 335 336 336 336 336 337 337 336 336 336 335 335 335 335 336 335 334 333 333 333 333 333 333 334 335 333 332 332 332 331 331 330 330 331 330
313 313 313 313 311 313 314 314 316 313 312 314 312 313 314 314 320 323 324 334 340 340 345 348 347 347 347 345 343 341 340 336 332 332 334 334 335 336 336 337 337 338 338 337 337 336 336 336 336 336 336 336 335 334 334 334 333 334 335 335 335 336 336 336 336 336 337 337 337 336 336 336 336 335 335 335 335 335 334 334 333 333 334 333 333 334 334 333 332 332 331 331 330 330 331 331 331
312 312 312 312 313 313 313 314 316 313 312 315 313 313 312 315 326 327 326 336 342 341 345 346 347 348 346 344 341 339 337 334 331 333 334 334 335 335 336 336 336 336 336 336 336 335 335 335 335 336 334 334 335 335 336 334 333 335 335 335 335 336 336 336 336 336 336 336 337 336 336 336 335 335 335 335 335 335 334 334 333 333 334 334 333 333 334 333 332 331 331 331 330 330 331 331 331
314 314 314 314 315 314 315 319 320 314 313 316 313 310 313 320 326 323 321 327 331 335 340 339 341 343 341 340 339 338 337 334 333 333 334 334 334 335 335 335 335 335 334 334 335 335 335 335 335 335 334 334 336 334 335 336 335 335 335 335 336 337 337 337 336 336 336 336 336 336 335 335 335 335 334 335 334 335 334 333 333 334 334 334 333 333 333 333 332 331 331 331 330 330 331 331 331
317 316 313 316 315 312 315 322 324 317 315 319 317 320 328 325 321 320 320 322 326 329 335 337 335 337 339 340 340 341 341 337 333 333 334 334 334 334 335 335 334 334 335 334 335 335 334 334 335 335 335 335 336 335 335 336 336 336 336 335 336 337 337 337 337 336 337 336 335 335 335 335 335 335 334 334 334 334 334 333 333 334 334 334 333 332 332 332 332 331 331 331 330 330 330 331 331
323 321 314 315 315 313 314 319 324 323 321 322 324 330 331 323 322 325 323 327 332 330 334 338 333 332 338 343 342 341 343 340 335 333 333 334 335 335 335 335 334 333 334 333 333 333 334 334 335 335 335 335 335 335 334 335 336 335 336 336 337 336 336 337 337 336 336 336 334 334 335 335 335 335 334 334 334 334 333 333 333 332 333 334 333 333 332 332 333 332 331 331 330 330 330 331 330
323 323 318 315 315 318 317 320 326 327 321 317 320 321 318 322 331 332 326 330 334 332 332 335 331 329 334 340 342 341 341 339 335 333 334 335 336 336 335 335 334 333 333 332 332 332 333 334 334 334 334 334 333 333 333 335 335 336 335 336 337 336 336 336 336 335 335 334 334 334 334 335 335 335 335 334 334 334 334 333 333 332 332 333 333 332 332 332 333 332 331 331 331 330 331 330 330
316 321 322 316 318 322 319 320 322 321 318 316 320 318 316 327 336 334 332 334 334 333 332 332 332 332 332 333 336 338 338 335 335 336 335 335 335 336 335 334 333 332 331 331 330 331 332 333 334 334 334 333 333 333 333 333 334 335 335 335 336 336 336 336 335 335 334 333 333 334 334 334 335 335 335 334 334 334 334 333 333 331 332 333 332 332 332 333 333 332 331 331 331 330 331 331 330
317 326 326 320 320 322 321 321 319 318 319 321 328 325 322 331 337 335 335 336 334 333 333 332 332 333 333 333 333 334 334 334 336 336 335 334 334 335 334 333 332 331 331 331 330 331 331 332 332 332 333 334 333 333 333 333 334 335 335 335 336 336 336 335 335 335 335 334 334 334 334 333 334 334 334 334 334 334 334 334 333 332 332 333 332 333 333 333 333 332 332 332 331 331 331 331 330
320 326 323 320 319 318 322 323 322 324 318 317 327 327 323 327 333 337 337 337 337 334 333 333 333 333 333 334 334 333 332 332 334 335 335 333 333 333 332 331 331 331 331 331 332 332 332 332 333 332 333 334 333 334 334 333 334 334 335 335 336 336 336 335 334 334 334 335 334 334 334 333 333 334 334 334 334 333 333 333 332 333 333 334 334 334 334 334 333 332 332 331 332 332 331 331 331
318 319 316 319 321 321 326 324 323 327 318 316 325 326 329 332 333 339 340 338 337 334 333 332 332 333 333 333 334 333 332 331 331 331 331 330 329 329 329 329 330 330 330 331 333 333 333 333 334 333 333 333 334 334 333 333 333 334 335 335 336 336 335 335 334 334 334 334 334 334 333 333 333 333 333 333 333 333 333 333 333 334 334 334 335 334 334 334 333 333 333 332 332 332 331 331 331
315 316 315 318 324 328 336 335 326 321 319 324 328 325 334 341 337 337 339 337 335 333 333 332 331 331 332 332 332 331 331 330 330 329 329 328 328 328 328 328 328 329 329 330 331 332 332 332 333 333 333 333 333 333 333 333 333 334 335 335 335 335 335 335 334 334 333 334 334 333 333 333 333 333 333 332 332 332 333 333 334 334 334 335 335 334 334 334 334 334 333 332 332 332 331 331 331
315 319 316 315 322 325 330 334 325 318 322 327 327 324 331 339 337 335 335 333 330 331 333 332 332 331 330 331 331 330 330 329 328 329 329 329 328 328 328 327 328 329 329 329 330 330 332 332 332 333 333 333 333 333 333 334 334 335 335 335 335 335 335 335 334 333 333 333 334 333 333 333 333 332 332 332 332 333 333 333 334 334 335 335 335 334 334 334 334 335 334 332 332 332 332 332 331
314 320 320 318 319 318 320 327 324 322 324 319 320 329 335 336 334 333 333 331 329 329 330 330 331 331 330 329 329 329 328 327 327 328 328 329 328 328 327 326 328 328 328 328 329 329 330 332 332 333 333 333 333 333 332 332 334 335 335 335 334 333 333 334 334 334 333 333 334 334 333 333 333 332 332 332 332 333 333 333 334 334 334 335 335 334 334 334 334 334 334 333 332 332 332 332 332
314 318 321 320 321 318 318 321 320 320 320 315 317 329 337 336 333 331 331 332 329 328 328 329 329 329 328 327 327 328 328 327 327 327 327 328 328 327 326 325 326 326 327 327 328 328 329 330 330 331 332 333 333 333 333 332 333 334 335 334 334 333 330 331 333 333 333 334 333 333 332 332 332 332 332 332 332 332 333 333 333 334 334 335 335 334 333 333 333 333 333 333 333 332 332 332 331
314 317 317 318 325 326 321 322 323 319 318 321 323 326 332 335 334 329 329 331 330 329 328 328 328 327 327 326 326 326 326 326 325 325 325 326 327 327 325 325 325 325 326 326 327 327 328 329 329 329 331 332 332 332 332 333 333 334 334 334 335 333 330 329 331 333 333 333 333 332 332 332 332 332 332 332 332 332 333 333 334 334 334 334 334 334 333 334 333 333 333 333 332 332 331 332 332
313 314 315 315 322 328 324 324 326 325 327 329 329 329 329 331 331 326 328 332 331 331 329 328 327 326 325 325 323 323 322 322 322 321 322 323 325 325 326 326 325 326 326 326 326 326 328 329 329 331 332 332 332 332 332 333 333 334 334 335 334 334 332 329 331 334 334 333 332 331 331 332 332 332 332 332 332 333 333 333 333 333 333 332 333 333 333 333 333 333 332 332 332 332 332 331 331
317 313 315 315 316 322 322 318 319 325 328 323 325 334 332 330 331 327 328 333 332 331 330 328 327 325 323 323 321 321 320 320 319 319 319 320 321 322 323 324 324 325 326 326 326 327 327 328 329 331 332 332 332 332 332 332 333 334 334 334 335 334 333 332 332 334 333 332 332 331 331 332 332 331 332 332 332 333 333 332 333 332 332 331 331 332 332 333 333 332 332 332 332 332 332 331 330
320 314 315 314 311 317 323 323 324 325 321 318 324 335 333 330 332 329 329 333 332 330 329 327 326 325 323 322 320 319 318 318 318 317 317 317 318 318 319 320 321 322 323 325 326 326 327 327 328 329 330 331 331 331 331 331 332 334 334 334 334 334 334 334 333 333 333 332 332 331 331 331 332 331 331 332 332 332 332 332 332 331 331 330 330 331 331 332 332 332 332 332 332 333 332 331 331
316 315 316 315 315 320 319 319 323 320 318 323 328 329 329 331 332 331 332 334 332 330 328 327 326 324 322 320 319 318 317 317 316 315 315 316 315 316 316 318 318 319 320 321 322 323 324 325 326 327 327 328 329 330 330 329 330 333 333 333 333 333 333 333 333 333 333 332 331 330 331 331 332 331 331 332 331 331 332 332 332 331 330 329 329 330 331 332 332 333 333 332 333 332 332 331 331
313 314 313 315 324 326 318 317 321 318 321 328 330 329 330 333 332 331 333 332 331 330 328 326 324 321 320 318 317 317 316 315 315 314 313 314 314 314 314 315 316 317 317 318 318 319 320 321 323 325 326 326 327 329 329 328 329 331 332 332 332 332 333 334 333 332 332 332 330 330 330 331 331 330 331 331 331 331 331 331 330 330 330 329 329 329 331 332 332 332 332 332 332 333 332 332 332
313 314 313 313 318 319 316 318 318 319 326 329 330 333 332 331 331 332 332 329 328 328 326 324 322 319 317 316 315 315 314 313 313 313 312 312 313 313 313 313 314 314 315 315 315 316 316 318 320 322 324 325 326 327 327 328 329 330 331 332 333 333 334 333 333 332 332 332 330 330 331 331 331 330 330 331 330 330 330 330 329 330 330 329 328 329 330 331 332 331 331 332 332 333 332 332 332
316 321 321 317 316 317 320 318 317 324 330 327 329 334 331 329 329 329 329 328 327 325 324 322 319 317 315 314 313 312 311 311 311 311 311 311 312 312 312 312 312 313 313 313 313 314 314 315 317 319 321 323 325 325 326 328 330 330 329 331 333 334 333 333 331 331 332 331 330 330 331 331 330 330 330 330 330 330 330 329 329 329 329 329 328 328 329 330 330 330 330 331 332 332 332 332 331
Wind_Speed
1 1 1 2 2 2 0 2 1 2 2 1 3 1 4 6 3 4 7 6 2 2 2 4 5 5 4 5 7 6 4 2 3 4 3 3 14 27 24 23 31 29 28 26 24 24 23 24 23 22 21 21 23 25 25 25 24 24 24 24 24 24 24 24 24 24 24 24 23 23 24 25 25 25 25 25 25 23 22 22 21 21 21 20 19 19 18 18 17 15 15 15 15 16 17 17 17
2 3 2 2 1 2 2 3 2 3 3 2 4 4 5 3 2 6 9 7 1 3 1 6 9 8 7 7 6 4 4 4 1 3 1 8 18 21 23 27 32 31 30 28 26 25 24 24 23 23 21 22 23 24 25 24 24 23 23 24 23 24 24 24 24 24 24 23 23 23 23 24 25 24 25 25 25 23 22 21 20 20 20 19 18 18 18 17 15 15 15 14 14 15 16 16 16
4 4 2 3 1 2 1 3 2 1 3 3 5 4 4 2 6 9 10 9 7 7 3 4 7 5 5 5 4 2 1 2 3 3 3 13 14 17 26 29 32 31 31 29 27 26 26 25 24 23 21 22 23 23 23 23 23 22 22 23 23 23 23 23 23 23 24 23 22 23 24 25 24 24 24 25 25 23 22 20 20 19 19 18 17 17 18 17 16 15 14 14 14 14 15 15 15
4 5 2 3 1 3 3 2 2 4 2 4 4 5 3 4 8 9 9 5 5 5 2 3 4 2 3 6 2 2 2 0 4 4 4 11 13 21 30 30 32 30 30 29 27 27 27 26 24 23 21 22 22 23 22 22 22 21 22 23 23 24 23 24 23 23 23 23 23 24 24 25 23 23 24 25 24 24 22 20 20 18 18 17 16 17 17 17 16 15 14 14 14 14 15 15 14
4 5 2 2 2 1 2 1 2 4 4 4 2 6 5 7 8 8 8 2 4 4 3 4 2 2 3 4 1 2 3 3 4 6 5 10 18 27 30 31 32 28 28 28 27 28 28 27 25 23 22 22 22 22 22 22 22 21 21 22 23 24 23 23 23 23 23 23 23 24 24 23 22 23 23 25 24 23 22 20 19 17 17 16 15 16 16 17 15 14 15 15 15 16 15 14 13
5 5 1 2 1 1 2 1 2 2 5 5 3 7 7 8 6 7 9 5 2 2 2 3 4 2 3 2 1 3 3 5 6 8 8 15 23 28 30 31 31 28 28 28 28 29 28 27 26 24 23 23 23 23 23 22 22 21 21 21 21 23 23 23 23 22 23 22 23 24 24 21 21 22 22 23 23 21 21 19 17 16 15 14 14 15 15 16 16 16 16 16 16 16 14 13 12
6 4 1 2 1 1 3 2 4 4 5 6 5 7 9 9 4 5 10 6 2 2 4 2 7 7 2 1 1 2 2 6 8 10 15 22 27 29 30 30 29 28 29 29 29 30 29 28 27 25 24 23 23 24 23 22 22 21 20 21 21 21 21 21 22 21 21 21 22 24 24 21 20 21 21 23 22 21 20 19 17 16 15 13 13 15 16 17 18 18 18 17 16 15 13 12 12
6 3 1 3 0 2 3 2 3 4 5 5 5 8 11 11 5 4 8 3 1 1 3 4 5 6 1 1 1 5 5 6 11 16 22 26 30 30 30 29 29 28 29 30 30 30 28 28 27 25 24 23 22 23 23 21 21 21 20 20 21 21 20 20 21 21 20 20 21 23 24 22 20 21 22 22 21 20 20 18 17 16 14 13 13 15 17 18 19 18 17 16 15 13 13 13 12
3 1 1 2 2 1 1 2 4 4 5 6 7 10 12 11 7 5 8 6 2 2 4 3 1 4 2 2 1 4 6 9 17 22 26 28 30 30 29 29 29 29 29 29 30 29 28 27 27 26 24 23 22 22 22 21 20 20 20 19 20 21 20 21 21 20 19 20 21 22 23 22 21 22 21 20 19 20 19 18 17 15 14 14 14 15 18 19 19 18 16 15 14 13 13 13 12
2 1 2 1 2 0 3 3 4 4 6 7 7 11 12 10 8 6 7 6 3 4 2 2 4 4 4 3 1 3 3 16 24 24 25 28 28 29 28 27 30 30 29 28 29 29 27 26 25 25 24 22 21 21 21 20 20 20 19 19 19 20 20 20 21 19 19 21 21 22 22 22 22 22 20 19 19 19 18 17 16 15 15 15 14 15 18 20 20 18 16 15 14 13 13 11 11
2 2 2 2 3 2 4 3 5 5 6 6 8 12 12 10 7 6 4 2 2 4 3 3 5 4 5 2 1 1 7 18 25 25 25 27 27 28 28 26 28 29 29 29 28 28 26 24 24 24 23 21 20 20 21 20 21 21 19 18 19 19 19 19 20 19 19 20 20 21 21 21 21 21 20 18 18 18 17 16 16 16 16 15 14 15 18 21 20 18 16 15 15 13 12 10 10
2 1 4 3 2 3 4 3 5 6 8 6 8 10 6 7 5 4 3 4 3 4 3 1 5 4 4 1 1 3 9 13 19 26 26 26 26 27 27 26 26 26 28 29 28 27 25 24 23 22 22 21 19 19 20 21 21 20 18 18 18 19 18 19 19 19 19 19 19 20 19 20 20 19 19 18 18 17 17 16 16 17 16 15 15 15 18 21 21 18 17 16 15 12 10 9 10
3 2 4 2 3 3 2 3 4 6 7 4 6 6 2 4 5 6 5 5 4 4 3 4 8 4 4 1 1 2 6 10 18 25 26 26 25 25 25 25 25 24 26 27 27 26 25 24 22 22 21 20 20 20 19 21 22 19 17 18 18 18 18 19 19 20 19 19 19 19 18 19 19 18 18 17 17 17 16 16 16 17 16 16 16 16 18 21 21 19 17 16 14 12 10 10 11
3 2 4 2 1 2 2 2 4 3 5 6 5 5 0 2 3 5 7 7 2 2 2 5 9 6 4 2 1 3 6 14 20 23 25 25 25 24 23 23 24 24 24 26 26 25 25 24 23 22 20 19 19 19 18 20 21 19 17 17 18 18 18 18 19 20 19 19 19 18 18 18 18 18 17 17 16 16 15 15 16 16 16 16 16 16 19 21 21 19 18 16 14 12 11 11 13
4 1 4 2 1 0 2 3 3 3 4 7 4 6 3 2 3 3 6 6 3 1 5 3 4 2 4 8 5 8 12 20 23 23 25 24 23 23 21 22 23 23 24 24 25 25 25 24 24 22 21 20 19 18 18 19 20 19 17 18 18 18 18 18 19 19 19 18 18 18 17 17 17 17 17 16 16 15 14 15 16 16 16 17 17 17 18 20 20 20 18 15 14 14 14 14 15
3 2 4 1 1 1 3 4 2 2 5 7 5 6 3 3 3 3 1 5 4 2 3 1 3 1 7 8 5 14 21 25 25 24 25 23 21 20 20 22 22 23 23 23 23 24 25 25 24 23 22 21 20 20 19 20 20 18 18 18 18 19 18 18 19 18 18 17 17 16 15 15 15 15 16 15 15 15 14 15 16 17 16 16 17 17 18 20 20 19 17 15 14 15 15 14 14
1 3 2 0 2 3 3 4 2 2 5 7 6 5 4 5 5 3 3 5 8 4 1 1 2 3 4 2 6 22 25 26 28 26 23 21 19 19 19 21 22 22 22 22 23 24 24 24 24 23 22 22 21 20 20 21 20 18 19 18 18 19 18 18 18 18 17 17 16 15 15 15 14 15 15 15 15 14 14 15 15 16 16 16 17 17 17 18 19 19 17 15 14 14 14 13 12
1 2 2 2 3 4 4 6 4 2 3 6 7 5 5 4 4 2 5 6 4 3 4 3 5 6 4 5 18 27 24 26 28 24 20 18 16 15 16 19 21 21 22 23 23 24 25 25 25 24 23 23 22 22 22 23 21 20 19 19 19 19 18 17 17 18 17 17 16 16 16 15 15 15 14 15 15 13 13 14 15 16 16 16 16 17 17 17 18 18 17 16 14 13 13 12 11
3 3 2 4 4 5 5 5 5 3 4 7 7 6 5 3 2 2 3 1 1 3 3 3 5 6 7 12 23 25 23 25 24 23 18 15 15 13 14 16 19 20 22 24 24 25 25 25 26 25 25 25 23 23 23 23 22 21 21 21 21 20 18 18 18 18 18 17 17 16 16 15 14 14 14 15 15 13 13 14 15 15 16 16 16 17 17 16 16 18 18 16 13 12 11 10 11
3 3 2 5 5 5 6 7 9 8 7 6 6 4 5 2 2 2 4 2 1 3 3 0 1 2 8 11 17 20 21 21 21 21 17 15 14 13 12 11 16 21 23 25 26 26 25 26 27 26 25 25 24 24 23 23 22 22 22 22 21 20 19 19 19 19 18 18 17 16 15 13 13 12 12 14 14 13 13 14 15 15 16 17 16 16 16 16 15 17 18 16 13 11 10 10 10
2 3 5 5 4 4 8 8 9 9 6 4 5 2 5 4 2 4 6 5 3 4 5 5 6 7 11 11 13 16 17 17 19 18 15 13 10 11 10 6 13 21 24 24 24 25 26 26 25 25 23 24 24 24 24 24 23 22 23 22 20 20 20 20 20 20 19 17 17 16 14 13 12 11 12 13 14 14 13 14 15 15 15 16 17 16 15 15 15 16 18 16 12 11 10 10 9
1 4 6 5 3 5 8 5 6 7 5 4 5 2 1 3 3 6 8 6 5 6 7 9 8 11 14 14 13 13 13 12 12 11 10 9 10 16 16 16 17 19 20 20 22 24 25 23 22 23 22 23 24 24 24 24 22 23 24 22 20 20 20 21 21 21 19 17 17 16 15 13 12 12 13 13 14 15 14 14 14 14 13 14 16 16 15 15 15 16 16 14 12 11 10 8 7
2 5 4 6 5 7 7 2 6 7 4 6 5 2 0 3 2 5 8 6 8 6 5 6 7 10 13 14 13 11 10 8 8 10 10 10 12 16 22 26 22 19 20 19 21 22 21 20 20 22 21 23 23 22 23 22 21 23 23 21 20 20 21 22 22 21 19 18 18 18 16 14 13 14 13 13 15 15 14 13 13 12 12 14 16 17 16 15 15 15 15 13 12 11 9 6 5
4 5 4 6 7 8 9 6 8 6 5 8 3 1 2 2 4 2 2 6 6 3 1 6 7 8 10 11 11 10 10 10 12 15 16 15 18 20 25 28 25 21 17 13 13 14 17 19 20 20 20 21 21 21 21 20 21 23 22 20 20 20 21 22 22 21 19 18 19 18 16 15 15 15 14 14 14 14 13 12 12 12 12 13 15 16 16 15 15 15 14 12 11 10 7 4 4
5 6 5 5 6 9 10 8 9 8 6 7 2 1 5 5 2 3 5 6 2 3 6 9 9 8 8 9 10 10 10 12 13 17 18 19 25 28 32 31 22 14 13 10 6 5 9 15 18 19 19 20 21 20 20 20 21 22 21 20 20 21 21 21 21 21 20 20 19 17 16 16 16 16 14 13 13 13 12 11 10 11 11 13 15 16 16 15 15 15 13 12 10 8 6 4 5
6 7 6 4 7 9 8 7 9 8 6 4 2 5 8 6 1 3 7 3 2 6 8 8 9 9 8 8 9 10 11 12 12 16 18 20 24 24 27 24 16 18 17 14 13 12 13 15 17 19 18 19 20 20 19 20 21 22 21 20 21 21 20 20 20 20 20 20 19 17 16 16 16 15 14 13 13 12 12 11 10 11 12 13 14 15 15 15 15 14 12 11 10 8 6 6 6
6 6 5 7 10 10 6 7 8 7 5 5 7 8 8 4 0 3 6 1 5 8 7 7 9 8 9 9 8 9 10 11 14 16 15 16 19 19 19 19 18 21 24 24 25 27 25 21 19 19 18 18 18 17 17 17 18 19 20 20 21 21 20 20 20 20 19 19 18 17 17 16 16 15 14 14 13 13 12 12 11 12 13 13 14 14 15 15 15 13 11 10 9 7 5 6 8
4 3 5 8 8 7 5 6 7 4 4 7 9 7 6 3 1 6 6 4 6 8 7 7 8 7 9 9 8 8 7 11 16 16 13 14 18 20 18 21 23 24 27 28 28 30 30 25 23 22 21 21 21 20 19 17 16 17 17 19 21 22 21 21 21 20 19 18 17 17 17 16 15 15 14 14 14 14 14 13 12 12 13 13 14 14 14 15 14 11 10 9 8 7 6 6 8
3 1 3 8 6 5 6 5 5 5 3 6 8 3 6 3 4 6 6 6 5 7 8 6 7 7 8 9 7 7 7 11 14 14 15 18 19 20 19 22 28 29 29 30 29 30 30 29 27 24 23 23 24 24 23 22 21 20 19 20 21 22 23 23 22 20 19 17 17 18 17 16 16 15 15 15 15 15 15 13 12 11 11 13 13 13 13 13 13 11 10 10 8 8 8 8 9
3 0 1 5 6 5 6 2 4 6 4 6 6 2 6 7 7 7 4 7 7 5 7 5 6 6 7 8 7 7 8 10 11 12 17 19 18 20 24 26 29 31 32 32 33 33 33 31 28 27 27 28 27 26 26 25 25 24 23 23 23 24 23 22 21 19 18 18 18 18 17 17 17 16 16 16 15 15 14 13 12 10 11 13 13 13 12 13 12 11 11 11 9 9 9 9 10
2 2 0 2 1 4 7 2 4 5 2 3 6 1 7 10 6 5 6 7 10 8 7 6 6 6 6 7 7 7 8 9 10 12 17 16 15 20 24 24 21 21 23 24 28 31 28 24 23 25 27 29 29 28 28 27 26 25 24 24 25 25 23 22 21 20 19 19 19 18 17 17 18 18 18 17 17 15 14 13 12 11 11 12 14 14 13 13 12 12 12 12 11 10 10 11 11
2 1 3 3 2 5 8 4 4 5 1 1 5 2 7 9 5 5 7 6 9 9 7 7 7 7 7 7 7 7 5 6 8 11 14 12 11 14 15 16 13 11 12 12 15 19 16 12 15 19 21 25 28 28 29 28 27 26 24 24 26 25 24 22 21 21 20 20 19 17 17 18 18 19 19 18 18 15 13 13 14 14 13 13 14 14 13 13 13 14 13 11 12 13 12 12 11
3 1 3 3 1 3 5 4 2 5 3 1 3 3 4 4 4 2 5 7 8 8 7 8 8 7 8 7 6 6 5 4 7 10 10 9 9 10 11 14 15 13 14 15 18 21 18 16 20 21 20 24 26 27 29 28 26 25 24 24 25 25 24 23 22 22 21 21 19 18 18 19 19 20 20 19 18 16 14 14 16 17 16 16 15 13 12 13 15 15 13 11 12 13 14 13 12
3 2 0 2 2 1 2 4 5 1 4 2 3 4 6 4 2 1 4 7 8 9 8 8 7 6 6 6 5 5 5 6 7 8 7 7 9 11 13 16 18 20 22 23 24 27 28 28 27 26 26 28 30 31 29 23 21 22 22 21 22 23 23 23 23 23 22 21 20 20 19 20 20 21 22 19 18 17 15 16 18 18 18 18 17 14 12 14 14 13 13 13 13 13 15 15 14
2 1 1 2 3 1 2 3 3 2 1 4 3 4 11 8 1 1 6 8 9 10 6 4 4 4 3 4 5 5 6 7 5 7 10 11 13 16 17 20 24 27 27 26 27 29 31 31 30 30 33 34 35 33 25 19 21 23 20 18 19 22 22 22 23 23 23 22 21 20 21 21 21 22 23 21 19 18 17 17 18 18 18 18 18 15 13 14 13 13 14 15 15 14 14 16 17
6 3 3 1 4 3 4 5 5 2 2 6 6 7 11 9 4 3 6 6 8 8 3 5 4 4 3 4 4 5 7 5 5 11 14 14 17 20 21 23 26 28 27 27 28 29 32 34 33 34 38 39 35 29 22 21 24 26 23 20 19 21 22 22 23 24 24 24 22 20 21 22 23 23 23 21 20 19 18 17 18 18 18 18 18 16 15 14 14 15 16 17 17 15 15 16 17
4 2 1 1 2 5 5 4 7 3 4 8 7 8 9 6 6 4 3 3 6 8 4 5 6 6 5 6 6 6 5 2 7 13 14 15 18 22 24 24 25 25 24 26 28 29 30 30 29 28 27 28 26 20 19 22 24 25 24 21 21 21 21 22 23 24 25 23 22 20 22 23 23 23 22 21 20 20 19 18 18 18 17 18 17 16 15 14 14 15 17 18 17 18 18 17 18
2 1 1 3 2 5 6 4 7 1 5 6 2 5 6 4 6 6 5 4 5 8 6 5 6 7 6 5 4 2 3 3 6 9 10 14 17 20 22 22 23 21 20 24 25 25 24 24 24 21 16 19 23 22 25 28 28 27 25 23 23 23 21 22 22 24 24 22 21 20 21 22 22 22 21 20 20 19 19 19 19 18 18 17 16 16 15 14 15 16 18 19 18 19 20 19 21
2 2 2 2 2 4 7 5 6 1 4 5 1 5 4 5 5 6 9 6 5 5 2 1 1 1 2 3 4 5 5 4 5 5 7 11 14 15 16 16 16 15 18 21 20 20 21 21 23 23 22 24 29 34 38 39 37 33 29 25 23 21 21 22 22 22 21 21 20 19 19 19 20 21 20 18 18 18 19 19 19 18 18 18 17 17 16 15 16 16 18 20 19 19 19 20 20
2 2 3 2 3 1 3 5 6 4 1 2 4 4 3 6 5 6 10 9 7 7 6 6 6 5 4 4 5 6 7 6 6 6 6 10 13 13 14 14 11 11 18 21 19 19 21 22 25 28 30 30 32 38 40 41 39 34 30 25 22 20 19 20 20 20 20 20 19 18 18 18 18 19 19 18 17 18 19 18 18 18 19 19 18 18 18 18 18 18 19 20 20 19 18 18 17
3 4 5 3 5 4 5 5 6 5 5 3 7 4 5 5 6 7 8 9 10 11 11 11 10 7 4 4 5 5 7 8 9 9 8 9 12 13 15 16 13 13 19 21 20 21 23 26 29 30 32 32 32 32 31 33 33 29 25 21 17 17 17 19 20 19 20 19 19 19 19 19 18 18 17 17 17 18 19 18 17 17 18 19 19 20 20 19 19 20 21 21 21 19 19 19 17
3 4 8 8 7 5 4 3 4 5 6 4 6 4 3 4 7 7 7 7 9 11 12 12 12 11 7 3 5 5 5 5 7 9 10 9 10 13 15 15 14 14 16 17 18 19 21 27 32 30 28 26 22 19 18 25 31 29 25 22 20 20 18 20 21 20 20 19 18 19 19 19 18 17 17 16 16 17 18 17 17 17 17 19 20 21 21 19 19 20 21 21 20 19 19 21 19
2 5 8 9 5 4 3 1 4 3 1 2 4 6 3 5 7 8 8 6 8 11 13 13 11 11 10 6 2 3 4 3 4 6 8 7 8 12 14 15 13 11 11 11 12 13 12 19 26 22 18 16 13 12 14 19 26 29 29 28 27 25 21 19 20 20 20 18 18 19 19 19 18 17 17 16 15 16 17 17 16 16 18 19 20 21 21 20 20 20 21 21 19 19 19 22 22
3 6 6 8 7 7 5 4 5 2 2 3 4 5 3 4 5 8 8 4 8 13 14 14 13 13 12 10 7 4 2 4 6 6 7 8 10 13 12 12 11 10 13 14 14 14 10 13 17 13 9 11 10 11 14 17 19 22 25 25 23 22 20 18 19 19 19 19 20 20 19 19 18 17 17 16 15 15 16 16 16 17 18 20 20 21 21 19 20 20 21 21 20 20 18 20 23
7 6 6 7 7 7 5 5 4 0 2 2 6 4 5 3 5 7 7 6 9 11 12 14 14 13 12 10 9 7 5 2 4 5 6 5 5 4 1 6 8 10 16 19 19 19 15 15 18 11 5 6 7 9 12 15 14 15 18 20 19 19 19 18 19 19 19 19 20 19 18 18 18 17 16 16 15 16 16 15 16 18 19 19 19 19 19 19 20 20 21 22 20 19 17 18 22
7 5 6 4 4 5 4 5 4 3 5 2 7 2 5 1 5 6 6 6 8 8 8 10 11 12 12 11 10 9 7 6 5 5 6 7 9 9 9 6 4 5 12 19 21 21 18 18 18 13 4 4 6 7 8 11 11 12 14 16 16 17 18 17 18 18 19 19 19 19 19 19 19 17 16 16 16 16 16 15 17 19 19 19 19 19 20 20 21 20 19 20 20 19 18 18 21
3 5 5 5 5 5 4 3 4 4 2 5 7 1 5 1 3 4 4 3 6 6 5 8 10 11 11 10 9 9 8 7 7 8 8 10 14 15 13 10 6 2 4 11 14 13 15 18 15 11 6 4 6 6 6 8 10 10 12 14 16 18 19 18 18 18 19 19 19 19 19 20 19 18 16 16 16 16 17 17 18 19 19 19 18 18 21 22 21 20 18 18 19 19 19 19 20
4 4 5 3 2 4 4 4 4 4 2 6 5 4 7 2 2 3 3 4 6 6 6 8 10 10 10 9 9 9 8 8 8 8 8 9 11 14 14 14 11 7 3 2 2 1 6 11 11 9 6 4 6 7 6 6 8 9 12 14 17 19 20 21 21 21 21 20 20 19 19 19 19 18 17 17 17 17 18 18 18 18 19 18 17 17 20 21 21 20 19 18 18 19 20 19 21
5 4 5 5 0 2 1 2 1 3 2 4 4 3 6 1 2 3 4 5 6 6 6 8 9 9 9 9 9 9 8 9 8 7 8 7 8 10 12 13 12 9 8 8 7 5 3 5 6 6 5 4 6 8 9 10 10 10 13 16 18 19 20 22 22 22 21 21 21 20 20 20 20 19 18 18 19 19 20 19 18 19 19 18 17 17 18 19 20 20 19 18 18 18 19 19 20
5 5 5 5 3 3 1 2 0 2 1 3 5 1 3 1 1 2 2 4 4 5 7 7 8 8 8 9 10 9 9 9 8 8 8 7 8 10 10 10 9 8 7 8 10 10 6 1 3 4 5 7 9 11 12 15 17 16 16 18 19 19 20 21 22 21 20 20 21 21 21 22 22 21 20 20 19 19 19 19 17 17 18 18 18 17 17 18 19 18 18 18 18 17 18 18 18
4 4 6 5 5 4 3 3 3 3 2 1 3 2 2 2 1 2 3 1 3 6 7 8 9 8 8 9 10 10 10 9 8 9 9 8 9 10 9 8 8 8 9 10 11 12 11 7 3 2 4 7 11 12 12 14 19 22 21 21 21 20 20 20 22 21 20 20 22 22 22 23 23 22 21 20 20 19 19 18 17 17 17 18 18 18 18 18 17 17 17 17 17 16 16 17 17
1 2 6 3 5 6 3 3 5 5 3 3 4 2 1 1 3 2 4 1 3 5 6 8 10 10 9 9 10 10 9 9 8 9 9 10 12 13 13 14 12 10 9 10 11 11 12 11 7 4 6 8 9 11 11 12 16 20 21 22 22 21 20 20 21 20 19 20 22 22 23 23 23 21 20 20 20 19 19 18 17 17 17 18 18 17 17 18 18 17 17 17 17 16 16 16 17
1 2 4 3 4 8 5 2 1 3 5 2 2 3 2 1 2 2 3 1 4 5 6 8 9 9 10 9 8 8 8 8 8 8 8 10 14 16 17 18 18 15 11 10 10 9 9 10 9 7 8 11 11 11 12 13 15 18 19 21 23 23 21 21 21 21 20 20 21 22 22 23 22 20 20 21 21 20 19 19 18 18 17 17 17 17 17 18 18 17 18 18 17 16 15 15 15
4 2 5 2 3 5 4 2 2 4 4 1 2 2 3 2 1 2 2 5 6 6 7 7 7 8 8 7 7 8 8 8 9 9 9 11 14 16 18 19 21 20 18 16 14 13 11 10 9 10 10 10 12 15 17 17 18 19 20 22 24 24 23 22 22 21 20 21 21 22 22 23 22 20 21 22 21 20 20 19 19 18 17 17 17 17 17 17 18 17 17 17 16 16 15 14 14
5 4 4 4 3 1 1 2 2 2 3 0 2 2 1 2 1 2 4 7 7 7 6 6 7 7 7 7 8 8 9 8 9 9 9 10 14 17 18 19 20 21 21 21 20 20 19 18 14 11 15 16 17 19 20 19 20 22 23 24 25 25 24 24 23 22 21 21 21 22 23 24 23 23 24 24 21 21 21 20 19 19 18 18 17 17 17 17 18 18 17 16 16 16 15 14 14
4 4 3 2 3 4 2 2 3 4 3 1 2 1 2 3 3 2 4 6 7 7 5 6 7 7 7 7 8 8 8 8 8 8 8 10 13 16 18 19 19 20 22 23 24 23 23 23 20 12 11 16 16 16 18 18 19 21 23 23 24 23 23 22 21 21 22 21 21 23 24 23 24 25 26 24 23 22 22 21 20 20 20 19 17 16 16 17 17 17 16 16 16 17 16 15 14
2 3 1 0 2 3 2 1 2 4 5 3 3 1 3 3 2 2 2 5 7 7 6 6 7 7 8 8 8 8 8 8 8 8 8 10 13 15 18 19 20 21 23 24 24 24 24 23 21 17 11 11 11 8 11 15 17 20 22 21 20 20 20 20 20 20 20 20 21 22 23 24 25 26 25 24 24 23 22 22 20 20 20 19 18 17 16 17 17 17 17 16 17 17 16 14 14
4 3 2 2 3 4 3 1 1 3 4 4 5 3 3 1 1 1 3 5 6 6 6 7 7 7 8 8 8 9 8 8 9 8 8 10 13 15 16 18 20 21 22 23 23 23 23 23 22 20 17 15 14 10 7 10 14 19 21 20 19 19 19 19 19 19 20 21 22 22 22 24 26 26 25 25 24 23 22 21 20 19 20 19 18 17 16 17 17 16 17 17 17 17 16 15 14
Wind_Direction
225 105 85 137 134 145 125 68 91 325 94 276 265 227 255 229 231 285 287 288 356 346 328 35 50 72 104 127 149 150 97 127 178 152 205 231 151 158 167 165 159 157 159 160 161 161 162 164 161 159 160 159 158 154 152 148 145 143 139 137 136 136 135 133 133 130 127 125 123 121 119 118 117 117 117 116 113 110 108 105 103 101 100 101 103 105 107 105 103 105 101 95 93 96 100 98 96
145 129 127 150 96 126 218 78 103 324 60 297 267 185 253 277 246 247 252 261 208 184 168 80 81 81 94 110 124 105 56 26 87 151 139 137 141 157 168 167 163 160 159 159 160 162 163 164 161 161 162 161 159 155 152 149 146 144 140 139 138 137 135 133 131 129 126 124 123 121 120 120 119 119 118 117 115 112 109 107 105 102 101 102 102 102 107 110 112 110 98 96 96 95 98 100 102
135 146 148 145 71 64 86 49 101 74 98 247 268 226 261 298 237 239 240 234 201 180 161 96 87 82 94 85 49 60 107 14 107 124 110 142 144 159 166 167 165 161 160 158 160 164 164 163 162 163 163 162 160 156 151 149 147 143 142 140 139 137 134 132 128 127 126 124 123 122 122 121 120 121 120 119 116 113 111 109 106 104 104 103 102 102 104 108 112 108 100 101 101 100 103 104 104
144 162 179 132 59 25 70 51 141 124 153 225 267 257 235 232 243 257 253 225 205 195 147 72 65 352 73 92 61 69 158 159 155 158 137 163 165 161 163 163 163 160 158 158 161 165 164 164 164 164 164 163 160 155 151 150 148 144 144 142 140 137 133 131 128 128 127 126 124 123 124 122 123 124 123 121 117 114 114 114 111 109 108 106 109 110 109 109 110 108 108 108 110 113 112 107 102
158 172 190 103 90 26 107 103 125 129 205 198 235 259 228 223 245 278 277 300 274 227 136 104 83 325 55 85 131 126 152 125 175 191 139 161 166 158 159 161 159 157 156 159 162 165 164 164 165 166 166 164 160 155 153 152 150 148 146 144 140 136 133 131 130 130 130 129 125 124 126 125 127 127 125 122 119 118 120 120 116 113 110 111 113 114 115 116 112 110 114 116 120 119 113 107 98
158 152 131 59 103 167 120 164 173 203 229 179 209 266 253 242 248 285 296 324 297 195 85 99 118 113 82 23 104 138 185 139 156 185 152 154 161 158 158 158 157 155 158 160 163 165 164 165 167 168 169 166 161 157 156 155 154 151 146 143 139 136 134 133 132 133 132 131 127 127 128 128 130 130 127 124 121 122 123 119 116 115 112 110 109 111 117 124 124 123 125 125 125 120 115 108 93
159 138 36 54 19 36 115 191 202 236 244 185 209 262 264 270 273 305 310 332 25 44 23 113 129 114 115 280 143 351 323 155 155 170 162 154 156 157 157 157 155 156 160 162 164 166 165 167 168 170 171 166 162 161 159 157 156 152 147 143 140 138 136 134 134 134 134 131 130 131 134 133 133 132 128 125 122 122 122 117 117 116 111 107 106 111 120 131 135 134 133 130 126 121 115 104 89
161 156 31 106 59 7 113 236 230 220 249 222 236 263 267 277 290 306 299 307 306 274 113 157 127 91 265 294 154 326 10 145 160 158 155 150 154 157 157 157 154 157 162 164 165 166 167 169 170 171 171 166 162 163 161 157 155 152 148 146 144 143 139 138 137 135 135 134 133 135 138 136 133 132 127 124 123 122 121 119 119 116 110 107 107 114 125 134 139 138 136 131 126 120 111 100 91
133 118 91 118 160 348 41 277 261 232 256 259 257 264 268 275 281 277 279 285 248 169 139 189 45 89 192 35 106 303 22 126 141 143 148 149 154 155 158 158 156 159 163 165 165 165 168 171 170 170 170 166 164 164 162 157 155 152 149 149 150 148 144 142 140 137 136 137 135 137 141 137 133 131 126 125 126 125 123 122 120 115 109 106 107 115 129 138 141 141 137 131 124 116 108 100 94
57 47 144 123 125 187 298 271 261 252 252 257 256 258 262 268 272 260 263 271 208 146 102 54 52 106 140 76 70 308 66 129 131 133 145 150 154 156 158 160 161 161 163 166 164 165 168 170 169 169 169 167 167 166 163 159 156 154 153 154 154 152 147 145 143 138 137 138 138 140 142 139 135 131 128 129 130 128 126 125 121 113 108 106 107 115 130 140 144 143 137 129 120 113 107 100 94
36 329 112 87 90 183 249 255 267 266 266 284 280 263 253 247 255 263 238 207 196 130 136 67 78 119 99 76 336 12 129 134 133 137 146 150 155 159 159 160 163 162 162 164 163 165 167 167 168 168 169 168 168 167 166 163 160 159 159 159 157 154 150 148 146 140 137 139 140 142 143 141 137 131 131 133 133 132 128 125 120 113 109 108 109 115 130 141 145 142 135 126 118 113 106 97 90
114 286 73 100 149 190 209 240 269 275 284 296 279 268 239 213 206 221 181 145 142 125 191 161 138 149 85 76 326 75 131 138 140 143 148 154 158 162 161 161 163 163 162 162 163 165 165 166 168 169 170 170 170 170 169 167 166 165 163 162 160 157 153 152 150 143 139 141 142 143 144 143 138 134 135 137 137 136 130 124 120 115 111 111 112 117 130 140 144 140 132 125 120 114 102 90 85
141 170 93 128 193 173 194 233 271 293 296 273 250 270 140 165 189 181 139 103 121 144 232 164 145 131 85 106 3 97 145 152 148 146 151 156 160 162 161 161 161 162 162 161 162 163 165 166 168 172 170 169 172 173 172 171 171 169 164 163 162 160 157 156 155 149 144 145 145 145 147 146 142 139 140 140 139 138 132 124 121 117 115 115 115 119 131 139 142 139 132 128 121 109 94 85 88
167 163 120 172 212 155 199 237 275 278 281 263 251 291 301 134 199 164 108 80 23 184 165 126 136 107 95 134 139 206 177 160 154 152 156 157 160 160 159 160 160 161 162 162 161 163 166 166 169 172 170 170 172 172 174 174 173 171 167 166 165 164 162 160 158 154 150 149 149 150 152 151 148 144 143 143 141 139 134 126 123 121 119 119 118 122 132 140 143 140 136 131 119 103 88 85 96
186 143 102 136 289 212 222 218 237 197 255 271 268 308 327 79 118 103 99 111 349 196 114 100 153 105 164 172 188 200 173 162 159 156 156 155 157 156 156 158 159 161 162 162 162 165 167 167 170 171 171 172 172 174 177 175 174 173 170 169 167 166 164 160 159 155 151 152 153 154 155 155 153 147 147 148 143 140 136 130 126 125 123 122 122 124 133 142 144 143 140 131 118 102 86 84 99
176 95 80 134 242 225 222 217 206 187 261 266 278 326 12 12 69 92 290 141 119 158 123 172 224 309 174 179 196 173 163 160 159 157 153 151 151 150 153 155 157 160 162 162 163 166 168 170 172 171 173 173 175 179 177 174 175 175 173 172 170 167 164 163 159 153 151 154 155 156 157 159 157 151 152 153 147 143 137 133 130 128 127 126 126 127 134 144 147 147 143 133 122 106 91 85 98
108 88 88 197 206 208 211 210 188 172 263 274 307 350 80 350 359 74 344 77 117 156 23 317 317 13 163 203 149 150 153 155 155 153 147 145 146 143 148 152 152 155 161 163 165 168 170 172 172 173 175 176 179 180 176 175 175 176 176 173 170 167 167 167 161 156 154 154 155 159 161 160 158 156 157 158 154 148 139 137 134 132 132 129 131 130 133 142 147 151 147 138 126 108 97 89 94
121 121 154 197 196 213 196 200 215 177 256 284 313 342 75 36 357 56 28 31 70 76 9 8 13 20 66 113 134 140 144 149 152 151 146 148 149 143 145 150 149 151 158 163 167 172 173 174 174 175 178 180 182 180 177 175 175 178 177 173 171 169 169 169 164 162 157 154 158 162 163 160 158 158 160 161 158 152 144 141 138 135 136 134 135 135 134 137 145 153 152 144 130 109 103 97 98
171 140 159 215 202 220 216 220 255 251 255 284 297 309 13 62 146 84 78 325 359 82 340 360 34 38 75 113 128 133 140 147 153 153 151 155 153 148 145 149 149 150 159 165 171 175 175 175 178 180 181 183 184 180 178 175 177 180 178 174 173 171 172 173 170 167 163 160 163 165 165 162 161 162 165 165 161 157 149 144 143 138 140 140 139 140 139 136 141 153 156 149 132 111 110 104 103
183 140 192 234 207 240 262 251 265 273 278 294 284 301 360 347 137 89 126 152 286 173 231 357 84 119 110 124 129 132 141 147 156 157 158 160 155 146 136 144 154 160 168 171 172 175 178 178 181 184 183 184 184 180 177 177 180 182 181 177 175 174 176 177 175 172 170 169 167 166 167 164 165 168 171 172 168 164 154 148 149 145 144 144 145 145 144 140 140 151 157 152 135 118 115 108 104
179 169 207 238 190 238 260 246 263 281 290 281 264 334 3 318 60 105 126 107 296 258 231 208 186 160 139 144 141 140 146 151 159 159 157 151 128 104 102 141 173 175 176 174 172 174 180 181 182 184 184 185 184 181 179 180 183 184 183 180 179 178 180 180 178 177 175 173 169 167 169 167 169 172 179 182 178 173 163 153 152 151 148 148 150 150 148 144 143 151 158 155 140 127 118 108 107
183 226 221 234 191 242 255 230 250 266 281 277 273 322 343 308 61 131 135 130 234 236 227 220 179 160 156 152 149 148 149 149 149 145 138 119 91 102 133 177 191 187 179 174 174 176 182 181 181 183 184 187 187 185 182 183 186 186 184 184 184 182 184 183 180 180 178 175 172 172 173 171 173 177 183 185 182 181 174 162 157 157 155 154 156 154 151 148 149 155 159 158 149 140 126 112 113
201 268 240 226 212 240 262 231 252 259 251 253 260 270 185 3 340 170 152 175 227 239 226 200 159 158 155 149 152 149 138 124 111 110 111 101 101 127 165 186 190 185 180 180 178 177 180 179 183 185 186 188 188 187 186 186 189 188 186 187 187 186 187 185 183 184 180 178 177 178 178 177 180 184 185 182 180 182 182 175 168 168 165 162 162 159 156 153 155 159 161 161 159 153 141 128 138
189 258 268 248 225 233 254 247 261 270 232 242 247 14 321 326 301 278 189 225 245 283 112 125 128 136 142 145 142 131 119 110 105 102 106 122 138 157 184 190 187 183 173 169 171 168 174 181 187 187 187 188 187 189 189 190 191 189 188 190 190 188 189 188 186 186 183 183 182 183 183 183 187 189 187 183 182 183 183 179 173 174 172 168 167 164 161 159 161 163 164 165 166 162 157 157 167
201 234 259 259 244 240 252 247 256 264 249 262 274 231 247 219 225 331 285 275 329 71 102 111 120 128 134 134 126 125 120 115 114 110 116 143 159 171 187 189 180 152 115 103 107 125 169 186 190 189 191 190 191 193 193 195 194 191 192 194 192 190 191 190 189 188 186 187 185 186 189 190 193 194 190 185 184 181 175 171 169 171 171 169 168 168 167 166 169 171 172 172 170 169 173 189 182
214 218 247 263 264 256 252 245 243 245 243 249 223 248 259 236 183 297 278 277 89 100 105 117 130 133 124 123 135 138 131 127 132 131 137 156 167 175 184 181 152 122 126 148 168 187 198 198 193 193 195 195 196 196 197 200 197 196 197 197 195 192 191 190 190 189 189 190 189 188 193 197 198 196 193 188 184 178 170 165 163 162 159 159 162 166 167 169 173 175 175 173 174 176 185 203 191
209 205 248 249 256 260 244 237 234 223 227 201 191 236 265 281 192 262 283 230 131 107 113 140 136 130 128 137 146 139 137 140 142 145 154 168 174 181 177 160 140 142 161 173 182 193 200 200 196 196 199 200 201 199 201 205 202 202 203 200 196 194 191 190 190 190 192 194 194 194 197 201 202 200 197 192 185 178 173 168 162 157 153 148 151 157 161 165 172 176 175 173 176 177 178 191 184
240 225 289 268 265 271 238 230 230 198 221 193 176 229 275 327 196 227 237 177 143 129 145 152 126 125 136 146 146 138 147 145 146 153 172 190 186 184 172 152 149 160 173 179 185 192 195 199 198 198 201 201 201 201 204 207 208 210 211 207 200 195 193 193 193 193 196 198 200 201 203 204 204 205 202 196 189 180 175 173 169 164 159 154 154 159 162 167 176 180 178 175 174 172 169 172 175
279 263 303 288 327 318 249 226 212 177 208 184 159 273 301 268 230 247 224 158 129 141 157 143 128 136 141 150 151 148 156 154 159 167 180 197 193 180 170 162 163 170 180 185 187 190 195 198 196 195 198 201 203 205 206 207 209 211 214 213 208 202 198 198 198 197 198 200 202 204 208 209 208 209 205 199 192 183 179 180 179 175 172 168 167 170 170 174 183 180 176 175 169 164 162 164 175
291 284 170 285 355 331 266 242 176 170 195 173 151 282 283 259 252 269 242 150 126 149 167 147 138 146 149 157 155 156 169 171 174 175 185 198 194 179 177 179 177 175 180 186 188 191 195 195 193 195 198 202 204 206 208 208 209 211 211 212 212 208 203 202 201 201 202 201 201 205 209 209 208 208 205 201 193 187 188 189 188 185 182 177 177 179 178 181 183 177 175 175 167 165 167 170 182
310 302 93 321 2 282 286 304 142 155 220 154 126 233 263 274 268 239 232 163 149 174 179 155 154 161 159 162 160 169 182 185 180 178 190 196 188 187 185 184 183 173 174 184 188 188 189 188 188 193 198 202 202 203 207 209 212 213 210 210 212 209 206 204 204 203 205 204 203 206 208 207 207 207 206 202 195 193 198 198 192 191 190 186 187 186 184 186 185 182 183 182 172 169 171 170 179
18 320 303 333 194 260 304 313 153 156 254 108 123 209 266 288 292 204 204 175 168 185 183 169 177 173 166 169 167 173 176 181 191 190 193 186 179 193 187 183 192 177 166 178 177 168 164 171 185 192 200 205 204 204 206 208 211 211 210 212 212 210 208 207 207 208 207 207 207 207 207 205 206 208 208 205 201 201 206 204 194 192 198 200 198 191 188 193 192 185 183 185 179 170 170 167 171
3 108 242 297 256 282 317 318 265 179 168 9 179 219 271 303 324 235 186 178 184 193 192 183 185 180 175 175 166 163 150 162 203 205 193 172 170 183 174 181 195 189 184 187 174 164 165 181 194 196 203 211 213 212 211 211 209 208 212 215 214 212 212 210 210 212 211 210 213 211 208 207 208 211 210 208 208 209 210 206 196 193 201 207 205 196 187 188 187 180 170 176 184 174 170 165 160
323 10 215 268 272 279 298 315 324 185 164 238 217 224 252 233 61 12 204 192 195 207 206 193 190 188 180 170 154 148 154 178 201 195 167 140 153 166 167 181 191 194 199 197 186 182 186 192 194 193 199 209 217 218 215 210 206 210 215 219 218 214 214 215 214 216 215 215 217 215 210 208 210 212 211 210 211 213 212 207 199 195 202 208 208 201 186 182 183 180 167 170 181 175 170 165 155
184 346 60 318 309 309 271 277 309 354 269 243 195 234 255 248 38 340 228 205 202 214 200 165 175 178 166 150 141 143 174 194 179 153 147 142 152 161 172 186 193 198 204 200 192 192 194 195 195 195 199 205 214 217 211 203 206 214 220 223 225 221 217 215 216 218 218 219 219 214 210 209 211 211 210 210 210 211 211 207 202 197 202 208 209 203 188 183 182 178 170 169 173 171 171 165 154
157 155 123 240 306 293 267 258 253 242 268 255 208 218 250 263 310 284 241 230 220 224 166 128 150 152 154 140 141 169 189 194 133 142 156 159 161 167 177 189 195 201 204 199 193 194 198 201 200 201 202 202 205 208 203 200 206 213 218 219 222 225 223 218 217 219 220 220 218 212 209 209 211 211 208 209 208 208 209 209 206 201 202 207 210 206 196 191 183 174 171 172 172 163 159 159 153
137 99 76 274 295 290 281 280 278 230 202 254 221 215 249 269 292 283 273 278 235 229 211 175 168 163 177 166 168 182 183 148 122 143 162 169 173 176 180 187 194 202 204 199 196 196 198 202 203 206 205 194 185 193 203 203 202 207 211 212 215 219 223 222 218 219 220 218 216 212 210 209 212 211 208 208 207 207 209 210 209 205 203 205 210 211 204 195 182 175 174 177 176 160 151 154 153
96 87 348 307 277 271 274 267 290 258 172 260 226 190 248 281 303 320 2 355 248 233 226 213 190 181 186 165 155 130 79 67 107 136 165 179 184 181 179 183 189 198 204 204 202 199 199 202 206 208 199 175 176 194 208 207 204 205 207 211 216 215 218 222 220 220 220 219 218 215 211 211 212 210 207 207 208 208 210 210 209 207 206 206 207 208 205 193 181 180 179 177 174 163 156 157 157
117 117 104 299 261 281 290 274 296 349 166 255 156 159 253 331 336 350 13 0 299 281 275 329 327 118 59 81 95 81 80 90 111 145 176 185 188 179 178 184 188 197 207 209 206 203 205 207 207 206 195 186 194 202 204 202 201 204 208 212 215 212 214 221 224 223 221 222 223 218 214 213 212 209 207 207 208 207 209 211 210 208 207 205 200 198 200 194 183 185 186 179 170 161 157 160 164
150 167 133 248 255 269 290 285 309 344 114 197 128 140 313 356 14 16 7 353 348 359 30 34 30 55 71 102 116 119 126 127 141 169 183 185 183 176 184 191 186 197 207 208 207 206 207 206 208 210 205 202 209 211 206 200 197 198 203 208 213 213 214 220 223 224 223 224 222 217 215 213 213 213 209 208 208 208 209 211 210 208 206 203 200 198 198 195 188 187 189 185 175 162 156 161 167
253 205 150 188 245 215 222 274 319 345 6 65 95 59 341 2 26 16 354 350 2 13 26 22 14 27 65 105 100 125 151 152 160 171 178 183 179 179 194 195 187 198 206 206 209 209 206 206 211 216 213 210 215 217 208 196 190 187 190 197 206 208 209 214 216 217 219 218 215 213 213 213 216 217 212 208 209 210 210 210 211 211 208 205 204 204 200 195 192 190 188 187 186 176 166 166 168
292 233 176 191 228 227 228 302 4 29 9 17 84 73 299 331 22 13 350 357 4 13 25 20 10 9 14 68 105 135 159 160 160 164 170 174 168 177 197 200 194 202 207 206 209 210 207 209 214 218 217 217 221 222 211 194 187 184 186 194 199 197 197 203 208 211 211 207 209 213 213 213 215 215 213 210 208 209 209 210 214 216 212 206 204 205 200 196 195 193 190 190 194 191 178 170 170
281 236 181 183 188 158 180 41 55 76 338 334 82 117 229 324 12 0 346 358 7 16 23 20 19 18 18 21 46 125 134 128 116 128 150 153 153 176 196 196 192 195 195 197 201 207 218 222 224 228 229 229 228 224 215 199 192 191 194 199 201 197 194 197 206 214 212 207 212 217 214 212 213 213 212 212 211 209 209 212 216 216 211 204 201 201 197 196 198 195 192 194 198 199 188 176 175
234 237 148 154 158 148 168 112 89 178 226 327 11 100 116 337 338 336 337 356 21 22 18 15 20 24 29 27 14 17 74 136 130 130 144 150 167 191 200 184 182 187 180 180 186 193 209 229 241 264 263 234 229 224 213 203 203 205 200 196 198 199 195 196 205 216 218 213 213 215 216 215 213 213 212 212 212 210 211 214 213 210 206 200 197 197 195 195 198 196 194 197 202 204 200 189 183
242 230 133 152 164 151 155 107 91 36 76 327 319 54 90 320 301 325 347 15 22 18 13 13 18 21 29 33 29 22 12 78 122 133 139 133 157 198 181 142 169 192 188 189 190 190 191 203 223 246 266 243 247 246 224 210 217 223 207 195 196 199 198 200 205 213 218 216 214 215 217 217 215 213 212 212 214 213 212 210 204 202 199 195 193 193 195 195 195 195 195 199 205 207 208 202 193
243 198 114 82 78 95 99 97 101 43 60 231 273 26 101 289 311 337 1 16 4 0 10 16 16 17 26 32 36 38 30 34 40 46 57 45 40 37 42 82 140 185 194 200 200 195 186 185 203 217 238 284 274 270 251 232 238 238 215 202 198 198 199 200 199 205 212 213 214 216 217 218 216 215 213 212 214 213 208 202 198 198 196 194 194 192 193 195 194 195 196 199 207 211 211 211 207
176 142 111 59 42 47 49 66 92 72 29 253 258 67 100 123 311 339 8 28 357 345 0 19 18 15 21 30 37 43 42 41 40 38 41 39 42 48 50 52 50 60 196 212 215 202 179 172 183 197 216 260 261 269 267 251 255 248 223 210 207 204 203 201 197 199 205 208 211 215 217 217 218 218 217 213 210 206 200 196 195 197 196 195 198 197 196 197 196 196 197 201 209 214 215 217 217
101 121 122 104 11 24 30 1 51 98 251 262 256 82 83 102 246 310 351 34 25 4 359 15 24 18 16 28 36 41 43 41 43 44 43 40 41 45 46 45 45 38 17 316 278 228 151 155 162 173 192 223 237 246 252 256 261 249 232 222 215 211 210 208 205 203 205 207 210 213 214 216 218 217 215 208 201 197 195 195 195 197 198 199 202 203 203 202 200 200 201 203 209 214 217 221 220
104 115 98 110 43 31 42 307 60 160 230 239 224 94 74 79 239 292 342 31 35 24 18 20 28 23 19 26 30 35 40 38 39 41 41 41 40 42 39 37 38 30 11 6 6 11 60 123 144 158 170 185 213 229 234 241 244 239 232 227 223 220 217 216 214 212 212 211 209 210 212 214 214 211 209 203 196 193 195 197 198 198 200 204 205 204 203 203 201 201 203 204 209 212 216 221 221
149 149 121 128 118 90 210 268 138 210 231 216 232 114 97 159 196 290 343 56 56 46 44 39 39 31 26 30 33 35 36 35 35 33 35 36 34 38 36 27 22 10 352 351 348 342 347 38 162 173 173 186 205 216 223 225 225 225 224 224 226 225 222 222 221 220 219 214 209 208 210 211 208 206 205 202 197 196 197 197 198 198 201 205 206 204 201 200 200 202 205 207 210 213 216 219 220
169 160 128 140 148 136 195 204 162 196 198 277 307 56 131 183 116 325 311 51 85 68 55 50 49 40 34 38 38 39 35 33 34 30 30 29 26 28 26 21 10 350 338 337 333 320 312 310 295 212 188 204 212 211 214 217 217 219 220 222 225 224 223 225 225 224 222 215 209 209 210 208 205 204 204 203 199 196 196 196 196 196 198 201 202 202 202 202 204 206 207 209 211 212 213 215 218
233 139 101 137 177 141 133 179 171 173 138 6 351 80 118 162 102 343 301 307 85 76 58 52 50 42 39 39 36 36 35 33 33 31 26 23 28 30 24 20 18 10 352 343 340 317 291 288 289 248 207 204 203 204 213 220 216 216 220 223 224 225 224 223 223 223 221 216 211 210 210 207 203 204 202 198 196 194 194 194 194 194 196 198 200 202 205 207 207 207 207 208 210 211 211 213 217
171 117 141 197 171 123 114 198 191 105 109 17 326 125 102 106 106 324 281 136 80 63 51 49 50 48 46 40 33 30 30 30 29 30 27 23 29 30 27 24 22 23 20 8 358 337 299 281 266 238 209 198 199 208 218 225 217 209 216 224 225 225 224 222 221 220 218 218 215 212 210 206 204 206 202 194 192 194 195 195 195 195 197 199 200 204 207 207 206 206 207 209 211 211 210 211 215
122 167 187 157 76 91 107 140 12 48 108 263 329 106 130 152 185 270 179 128 96 78 60 47 41 47 49 42 34 27 23 24 22 24 24 22 24 23 22 23 21 21 22 18 11 360 344 319 284 261 253 242 234 227 219 220 219 211 212 221 224 225 225 225 223 218 216 215 213 211 207 204 204 204 199 194 194 196 197 198 197 196 198 198 199 202 206 207 206 207 210 213 213 211 208 207 211
123 166 165 110 111 155 94 123 122 90 130 166 9 22 169 167 217 233 151 129 112 97 75 54 41 42 44 34 29 25 22 19 17 20 18 16 18 17 16 16 17 18 18 17 15 12 8 2 345 300 271 267 262 247 229 223 224 221 219 221 224 225 225 226 222 216 215 212 207 205 203 203 203 201 196 195 195 196 197 199 198 198 197 196 197 200 204 207 208 209 211 213 213 210 208 205 208
79 92 45 60 135 158 158 139 144 143 148 146 86 2 284 207 231 251 153 140 124 107 89 66 49 43 41 34 26 21 20 18 14 16 15 13 15 15 14 14 13 14 16 16 16 15 13 12 9 348 285 273 275 261 238 230 231 231 228 223 223 224 222 222 219 215 214 211 205 202 202 202 202 199 195 194 195 197 198 198 199 199 196 193 194 195 198 203 207 208 210 211 211 209 208 209 211
105 98 80 312 87 112 151 113 96 128 138 141 130 196 270 234 242 274 153 139 118 109 104 81 60 47 41 35 29 22 17 17 14 11 11 12 13 13 14 16 14 14 15 15 14 15 15 12 11 7 344 321 321 296 243 233 236 239 237 229 224 222 219 219 219 216 214 209 204 203 204 203 199 197 195 193 195 197 197 198 198 199 195 192 192 191 193 198 202 206 210 212 211 209 209 212 214
126 128 153 174 135 119 123 120 338 86 120 154 149 172 250 263 48 49 104 108 90 86 94 86 67 52 44 34 29 25 19 17 14 9 9 10 11 10 11 15 16 14 13 12 12 13 13 10 6 4 3 2 359 348 301 264 250 241 236 233 229 222 217 217 219 220 213 204 201 203 205 200 197 197 196 193 194 196 197 198 197 197 194 192 193 192 193 196 198 204 210 211 211 211 211 211 213